Location: Lac Lasalle
(46.0398°N, 74.1576°W)
Time: 07:56:44
(UTC-04:00)

OTV 5 (USA 277) - Visible Passes

Search period start: 20 October 2019 00:00
Search period end: 30 October 2019 00:00
Orbit: 310 x 324 km, 54.5° (Epoch: 17 October)

Date Brightness Start Highest point End Pass type
(mag) Time Alt. Az. Time Alt. Az. Time Alt. Az.
20 Oct ? 05:37:47 32° SSE 05:37:47 32° SSE 05:39:34 10° SE visible
21 Oct ? 05:52:34 14° S 05:52:34 14° S 05:53:21 10° S visible
28 Oct ? 19:09:39 10° S 19:11:24 21° SSE 19:11:24 21° SSE visible
29 Oct ? 19:23:34 10° SW 19:25:53 49° S 19:25:53 49° S visible
